Weather Roundup
Issued by NWS Chicago, IL

Home | Current Version | Previous Version | Graphics & Text | Print | Product List | Glossary On
Versions: 1 2 3 4 5 6 7 8 9 10 11 12 13 14 15 16 17 18 19 20 21 22 23 24 25 26 27 28 29 30 31 32 33 34 35 36 37 38 39 40 41 42 43 44 45 46 47 48 49 50
000
NZUS59 KLOT 012200
HRRLOT

CHICAGO AREA WEATHER ROUNDUP
NATIONAL WEATHER SERVICE CHICAGO/ROMEOVILLE IL
400 PM CST SUN MAR 01 2015

NOTE: "FAIR" INDICATES FEW OR NO CLOUDS BELOW 12,000 FEET WITH NO
SIGNIFICANT WEATHER AND/OR OBSTRUCTIONS TO VISIBILITY.

* THESE STATIONS ARE NOT UNDER NWS QUALITY CONTROL. THEY ALSO MAY NOT
  REPORT WEATHER SUCH AS PRECIPITATION OR FOG.

ILZ005-006-012>014-019>023-012300-
NORTHEAST ILLINOIS

CITY           SKY/WX    TMP DP  RH WIND       PRES   REMARKS
OHARE          PTSUNNY   24  15  68 W13       30.26F WCI  12
MIDWAY         PTSUNNY   27  17  66 SW12      30.28F WCI  17
AURORA         PTSUNNY   24  15  68 W15       30.29S WCI  11
LANSING*       PTSUNNY   25  18  74 SW12      30.28F WCI  15
WAUKEGAN       MOSUNNY   25  15  66 SW8       30.23F WCI  16
DUPAGE AIRPORT PTSUNNY   22  15  75 W14       30.27S WCI   9
WHEELING       MOSUNNY   26  14  60 W13       30.27F WCI  15
NORTHERLY IS     N/A     28  17  63 W9          N/A  WCI  19
$$

WIZ051-052-058>065-066-070>072-012300-
SOUTHEAST WISCONSIN

CITY           SKY/WX    TMP DP  RH WIND       PRES   REMARKS
MILWAUKEE      MOSUNNY   26  13  57 SW15      30.22F WCI  14
KENOSHA*       MOSUNNY   25  14  63 W14       30.22F WCI  13
RACINE*        SUNNY     26  14  60 SW10      30.23F WCI  16
WAUKESHA       MOSUNNY   25  12  58 SW12G17   30.21F WCI  14
$$

INZ001>003-010>013-019-020-012300-
NORTHWEST INDIANA

CITY           SKY/WX    TMP DP  RH WIND       PRES   REMARKS
GARY*          CLOUDY    28  16  59 SW9       30.28F WCI  20
MICHIGAN CITY* NOT AVBL
RENSSELAER*    NOT AVBL
$$

LMZ740>746-012300-
SOUTHERN LAKE MICHIGAN

STATION/POSITION TIME  SKY/WX   TEMP WIND        PRES    VSBY
                                AIR  DIR/SP/G
                 (UTC)          (F)  (DEG/KT/KT) (MB)    (MI)
HARRISON CRIB    2100            26  250/ 10/ 12   N/A
BURNHAM HARBOR   2200            28  260/  8/  9   N/A
CALUMET HARBOR   2100            27  210/  7/ 12 1023.7F
BURNS HARBOR     NOT AVBL
MICHIGAN CITY    2100            23  250/  7/  8   N/A
$$

ABBREVIATIONS USED IN REMARKS
   TC - TEMPERATURE IN CELSIUS
  WCI - WIND CHILL INDEX
   HX - HEAT INDEX
  VSB - VISIBILITY
$$


USA.gov is the U.S. government's official web portal to all federal, state and local government web resources and services.